www.pogodaiklimat.ru

Погода и климат >> Архив погоды >> Хорватия >> Сисак


ПОГОДА в Сисаке

  • Прогноз погоды в Сисаке
  • Монитор погоды в Сисаке

АРХИВ ПОГОДЫ в Сисаке

Время (UTC), дата Ветер
(напр.,м/с)
 
Видим.   Явления Облачность Т
(С)
Тd
(С)
f
(%)
Тe
(С)
Тes
(С)
Комфортность P
(гПа)
Po
(гПа)
Тmin
(С)
Tmax
(С)
R
(мм)
R24
(мм)
S
(см)
10 12.02 СВ 4 35 км 6/0
[Ac trans Ci sp]
+6.4 -3.2 50 +3 +6 1025.3 1012.2
11 12.02 СВ 3 35 км 5/3 300 м
[Cu hum Ci sp]
+7.3 -4.3 43 +5 +8 1025.3 1012.2
12 12.02 С 4 35 км 6/4 300 м
[Cu hum Ci sp]
+7.6 -4.5 42 +5 +7 1025.3 1012.2
13 12.02 С 4 35 км 8/4 300 м
[Cu Sc Ac As]
+8.1 -4.8 40 +6 +6 1025.3 1012.2
14 12.02 С 4 н/о н/о +8.6 -5.2 37 +6 +6 1025.8 1012.7
15 12.02 С 4 н/о н/о +7.7 -4.4 42 +5 +5 1026.5 1013.4
16 12.02 С 2 н/о н/о +6.5 -4.8 44 +5 +5 1027.3 1014.1
17 12.02 С 2 н/о н/о +4.9 -6.6 43 +3 +3 1028.5 1015.2
18 12.02 С 2 35 км 10/4 300 м
[Sc Ac As]
+4.6 -7.1 42 +3 +3 1029.7 1016.4 +8.5
19 12.02 СВ 3 35 км 10/5 300 м
[Sc Ac As]
+5.0 -5.3 47 +2 +2 1031.1 1017.8
20 12.02 СВ 5 35 км 9/4 300 м
[Sc Ac As]
+4.4 -4.4 53 0 0 1031.9 1018.6
21 12.02 С 1 н/о н/о +3.3 -2.6 65 +2 +2 1032.8 1019.4
00 13.02 СВ 1 н/о н/о +1.6 -3.0 71 0 0 1034.2 1020.7
03 13.02 ЮЗ 1 15 км 4/0
[Ci sp]
-1.4 -3.1 88 -4 -4 1035.7 1022.0
04 13.02 ЮЗ 1 15 км 8/0
[Ac As Ci sp]
-1.6 -3.0 90 -4 -4 1036.2 1022.5
05 13.02 штиль 0 15 км 10/0
[Ac As]
-1.2 -2.9 88 -2 -2 1036.2 1022.5
06 13.02 ЮЗ 1 20 км 10/6 300 м
[Sc Ac As]
-0.6 -2.5 87 -3 -3 1036.6 1023.0 -1.9
07 13.02 З 1 35 км 8/4 300 м
[Sc Ac As]
0.0 -2.4 84 -2 -2 1037.2 1023.6
08 13.02 ЮЗ 1 35 км 8/3 300 м
[Sc Ac As]
+1.4 -2.3 76 -0 +1 1037.1 1023.6
09 13.02 ЮЗ 2 35 км 5/0
[Ac As]
+4.2 -2.8 60 +2 +5 1037.1 1023.7
10 13.02 Ю 1 35 км 8/4 300 м
[Sc Ac As]
+6.1 -2.7 53 +6 +8 1037.3 1024.0
11 13.02 С 2 35 км 8/3 300 м
[Cu hum Ac As]
+6.4 -2.6 53 +5 +7 1037.3 1024.0
12 13.02 ЮЗ 2 35 км 8/8 300 м
[Cu Sc]
+7.5 -2.7 48 +6 +7 1036.8 1023.6
13 13.02 С 3 35 км 8/8 300 м
[Cu Sc]
+7.7 -3.1 46 +6 +6 1036.3 1023.1
14 13.02 В 1 н/о н/о +7.6 -2.1 50 +7 +7 1036.1 1022.8
15 13.02 С 2 н/о н/о +7.6 -1.6 52 +6 +6 1036.4 1023.1
16 13.02 СВ 3 н/о н/о +7.1 -1.3 55 +5 +5 1036.9 1023.6
17 13.02 Ю 1 н/о н/о +6.7 -0.9 58 +6 +6 1037.3 1024.0
18 13.02 В 2 35 км 9/5 300 м
[Sc Ac As]
+6.0 -3.2 52 +4 +4 1037.3 1024.0 +7.8
19 13.02 Ю 2 35 км 4/0
[Ac As]
+5.2 -1.8 61 +3 +3 1037.4 1024.0
20 13.02 ЮЗ 2 35 км 8/0
[Ac As]
+3.3 -2.7 65 +1 +1 1037.7 1024.2
21 13.02 Ю 1 н/о н/о +3.6 -1.1 71 +2 +2 1037.8 1024.3
00 14.02 штиль 0 н/о н/о +2.3 -1.1 78 +1 +1 1037.5 1024.0
03 14.02 ЮЗ 1 35 км 3/0
[Ac lent Ci fib]
+0.2 -2.2 84 -2 -2 1036.7 1023.1
04 14.02 штиль 0 35 км 3/0
[Cs]
-0.2 -2.1 87 -1 -1 1036.7 1023.1
05 14.02 СЗ 1 35 км 6/0
[Ac lent Cs]
-0.8 -2.4 89 -3 -3 1036.7 1023.1
06 14.02 штиль 0 35 км 8/0
[Ac As]
-0.7 -2.3 89 -2 -2 1036.7 1023.1 -1.0
07 14.02 штиль 0 40 км 8/0
[Ac As Ci fib]
+0.1 -1.7 88 -1 -1 1037.2 1023.6
08 14.02 СВ 1 40 км 5/0
[Ac lent Ci fib]
+3.1 -0.3 78 +2 +4 1037.3 1023.8
09 14.02 С 1 40 км 4/0
[Ci fib]
+5.1 -0.5 67 +4 +9 1037.2 1023.8
10 14.02 Ю 1 45 км 3/0
[Ac und Ci fib]
+8.1 0.0 57 +8 +14 1037.1 1023.9
11 14.02 ЮЗ 2 45 км 3/0
[Ac trans Ci fib]
+9.8 -0.3 49 +9 +14 1036.3 1023.2
12 14.02 СВ 3 45 км 3/1 600 м
[Sc Ci fib]
+10.8 -1.3 43 +9 +13 1035.8 1022.7
13 14.02 СВ 3 35 км 3/1 600 м
[Sc Ci fib]
+11.2 -0.7 44 +10 +13 1035.0 1022.0
14 14.02 З 1 н/о н/о +12.5 -0.7 40 +13 +13 1034.6 1021.6
15 14.02 СЗ 2 н/о н/о +11.4 -0.4 44 +11 +11 1034.5 1021.4
16 14.02 З 1 н/о н/о +10.4 -0.7 46 +11 +11 1034.0 1020.9
17 14.02 штиль 0 н/о н/о +6.9 -0.3 60 +6 +6 1034.3 1021.0
18 14.02 ЮЗ 2 30 км 1/0
[Ac trans]
+5.2 -0.3 68 +3 +3 1034.1 1020.8 +12.4
19 14.02 штиль 0 30 км 8/0
[Ac und]
+4.6 +0.1 73 +4 +4 1034.3 1021.0
20 14.02 штиль 0 35 км 6/0
[Ac und]
+4.9 +0.4 73 +4 +4 1034.5 1021.2
21 14.02 ЮЗ 1 н/о н/о +3.7 -0.4 75 +2 +2 1034.4 1021.0
00 15.02 З 1 н/о н/о +1.4 -1.1 83 -0 -0 1034.9 1021.4
03 15.02 З 2 35 км 9/0
[As op]
+0.4 -1.1 90 -3 -3 1034.0 1020.5
04 15.02 З 3 35 км 3/0
[As op]
+0.7 -1.4 86 -4 -4 1034.0 1020.5
05 15.02 З 2 35 км 3/0
[Ac trans Ci fib]
+0.1 -1.5 89 -4 -4 1033.9 1020.3
06 15.02 З 1 25 км 5/0
[Ac trans Ci]
-0.8 -1.9 92 -3 -3 1034.2 1020.6 -0.8
07 15.02 З 2 25 км 5/1 600 м
[Sc Ci fib]
+0.6 -1.2 88 -3 -2 1034.5 1021.0
08 15.02 З 2 25 км 5/3 600 м
[Sc Ci fib]
+2.7 0.0 82 -0 +2 1034.5 1021.1
09 15.02 С 3 20 км 8/1 600 м
[Sc Ac As Ci fib]
+5.8 +1.2 72 +3 +5 1034.9 1021.6
10 15.02 С 5 25 км 8/8 600 м
[Sc]
+7.1 +2.0 70 +3 +4 1035.0 1021.8
11 15.02 С 4 20 км 9/9 600 м
[Sc]
+7.1 +2.2 71 +4 +4 1034.9 1021.7
12 15.02 СВ 3 20 км 10/10 600 м
[Sc]
+7.5 +2.4 70 +5 +5 1035.0 1021.8
13 15.02 СВ 3 25 км 9/9 600 м
[Sc]
+8.8 +2.0 62 +7 +7 1034.5 1021.4
14 15.02 С 3 н/о н/о +9.5 +0.2 52 +8 +8 1034.2 1021.0
15 15.02 СВ 3 н/о н/о +9.5 +0.2 52 +8 +8 1034.2 1021.0
16 15.02 СВ 2 н/о н/о +8.6 +0.6 57 +7 +7 1034.2 1021.0
17 15.02 штиль 0 н/о н/о +6.4 +0.4 65 +6 +6 1034.5 1021.2
18 15.02 СЗ 1 15 км 3/0
[Ac trans Ci fib]
+3.7 +0.1 77 +2 +2 1034.6 1021.2 +9.5
19 15.02 штиль 0 15 км ясно +2.0 -0.5 83 +1 +1 1034.7 1021.2
20 15.02 ЮЗ 2 10 км ясно +1.3 -0.2 90 -2 -2 1034.8 1021.3
21 15.02 ЮЗ 1 н/о н/о +0.8 -0.6 90 -1 -1 1035.1 1021.5
00 16.02 штиль 0 н/о н/о -0.8 -1.7 94 -2 -2 1035.1 1021.4
03 16.02 штиль 0 8000 м дымка ясно -2.4 -3.0 96 -4 -4 1034.1 1020.4
04 16.02 штиль 0 8000 м дымка ясно -2.8 -3.2 97 -4 -4 1034.1 1020.4
05 16.02 ЮВ 1 4000 м дымка 5/5 300 м
[St]
-3.2 -3.6 97 -6 -6 1034.1 1020.4
06 16.02 штиль 0 4000 м дымка 6/4 300 м
[St Ac trans Ci fib]
-3.4 -3.8 97 -5 -5 1034.1 1020.4 -3.4
07 16.02 З 1 4000 м дымка 5/4 300 м
[St Ci fib]
-2.8 -3.2 97 -5 -5 1034.8 1021.1
08 16.02 С 1 8000 м дымка 5/3 300 м
[St Ac trans Ci fib]
+1.0 -0.2 92 -1 +1 1034.8 1021.3
09 16.02 СЗ 1 10 км 1/0
[Ci fib]
+3.8 +1.2 83 +2 +8 1034.8 1021.4
10 16.02 СЗ 1 10 км ясно +6.8 +2.1 72 +6 +13 1034.4 1021.2
11 16.02 ЮЗ 1 15 км 1/0
[Ac trans]
+9.2 +2.5 63 +9 +16 1033.7 1020.6
12 16.02 ЮВ 1 15 км ясно +10.8 -0.9 44 +11 +18 1032.8 1019.8
13 16.02 Ю 1 20 км ясно +12.0 -1.0 41 +12 +17 1032.3 1019.3
14 16.02 штиль 0 н/о н/о +12.8 -0.8 39 +13 +13 1031.5 1018.5
15 16.02 В 1 н/о н/о +11.3 -0.2 45 +12 +12 1031.0 1018.0
16 16.02 СВ 2 н/о н/о +10.4 +0.2 49 +9 +9 1030.9 1017.8
17 16.02 В 1 н/о н/о +7.9 0.0 57 +8 +8 1030.9 1017.7
18 16.02 В 2 15 км ясно +6.8 -0.5 60 +5 +5 1031.3 1018.1 +13.0
19 16.02 ЮВ 1 15 км ясно +4.9 -1.0 66 +4 +4 1031.5 1018.2
20 16.02 В 1 10 км ясно +2.1 -1.5 77 +1 +1 1031.8 1018.4
21 16.02 штиль 0 н/о н/о +1.0 -1.0 86 -0 -0 1031.5 1018.0
00 17.02 н/о н/о -0.8 -1.7 94 1031.2 1017.6
03 17.02 СЗ 1 8000 м дымка ясно -2.2 -2.5 98 -5 -5 1030.4 1016.8
04 17.02 З 1 8000 м дымка ясно -2.6 -2.9 98 -5 -5 1030.4 1016.8
05 17.02 ЮВ 1 8000 м дымка ясно -2.5 -2.8 98 -5 -5 1030.6 1017.0
06 17.02 штиль 0 8000 м дымка ясно -3.2 -3.6 97 -4 -4 1030.9 1017.2 -3.2
07 17.02 В 1 10 км ясно -2.0 -2.3 98 -4 -3 1031.2 1017.6
08 17.02 В 1 10 км ясно +2.0 +0.3 88 0 +4 1031.1 1017.7
09 17.02 В 1 15 км ясно +4.6 -0.5 69 +4 +9 1030.5 1017.2
10 17.02 С 1 15 км ясно +7.6 +0.2 59 +7 +14 1030.3 1017.2
11 17.02 В 1 15 км ясно +9.8 +0.6 53 +10 +18 1030.0 1017.0
12 17.02 В 1 15 км ясно +11.6 0.0 45 +12 +19 1028.8 1015.9
13 17.02 В 1 15 км ясно +14.4 +1.2 41 +15 +20 1028.0 1015.2
14 17.02 В 1 н/о н/о +14.0 -3.7 29 +15 +15 1027.2 1014.3
15 17.02 В 2 н/о н/о +13.8 -3.9 29 +14 +14 1026.6 1013.7
16 17.02 В 1 н/о н/о +12.6 -1.7 37 +13 +13 1026.3 1013.4
17 17.02 СВ 1 н/о н/о +9.7 -1.6 45
18 17.02 В 1 10 км ясно +6.6 -0.8 59 +6 +6 1026.8 1013.6 +14.6
19 17.02 штиль 0 10 км ясно +3.8 -0.6 73 +3 +3 1027.2 1013.9
20 17.02 СВ 1 10 км ясно +2.2 0.0 85 +1 +1 1027.4 1014.0
21 17.02 н/о н/о +1.2 -0.7 87 1027.2 1013.7
00 18.02 ЮЗ 1 н/о н/о -0.5 -1.7 92 -3 -3 1026.9 1013.4
03 18.02 штиль 0 4000 м дымка ясно -2.5 -3.1 96 -4 -4 1026.5 1012.9
04 18.02 штиль 0 4000 м дымка ясно -3.0 -3.7 95 -4 -4 1026.6 1013.0
05 18.02 штиль 0 4000 м дымка 4/0
[Ci sp]
-3.1 -3.8 95 -4 -4 1026.6 1013.0
06 18.02 штиль 0 5000 м дымка 4/0
[Ac trans Ci sp]
-3.4 -3.8 97 -5 -5 1026.7 1013.1 -3.5
07 18.02 штиль 0 5000 м дымка 1/0
[Ci fib]
-2.1 -2.6 96 -3 -2 1027.0 1013.4
08 18.02 В 1 8000 м дымка 3/0
[Ci fib]
+2.2 -0.3 84 +1 +4 1026.9 1013.5
09 18.02 В 1 10 км 3/0
[Ci sp]
+5.2 0.0 69 +4 +10 1026.7 1013.5
10 18.02 С 1 10 км 3/0
[Ci sp]
+7.6 +0.5 61 +7 +14 1026.2 1013.1
11 18.02 В 1 10 км 3/0
[Ci sp]
+10.1 +0.5 51 +10 +18 1025.5 1012.5
12 18.02 СВ 1 10 км 3/0
[Ci sp]
+12.4 +0.3 43 +13 +20 1024.3 1011.4
13 18.02 В 2 15 км 4/0
[Ci sp]
+13.8 -0.6 37 +14 +18 1023.5 1010.7
14 18.02 ЮВ 2 н/о н/о +15.4 -1.2 32 +16 +16 1022.3 1009.6
15 18.02 СВ 2 н/о н/о +15.2 -1.3 32 +15 +15 1021.8 1009.1
16 18.02 СВ 1 н/о н/о +14.0 -2.0 33 +15 +15 1021.6 1008.8
17 18.02 СВ 1 н/о н/о +10.8 +0.3 48 +11 +11 1021.7 1008.8
18 18.02 С 1 10 км 4/0
[Ci sp]
+7.5 +1.5 66 +7 +7 1021.9 1008.9 +15.5
19 18.02 штиль 0 8000 м дымка 3/0
[Ci sp]
+5.0 +1.1 76 +4 +4 1022.1 1008.9
20 18.02 штиль 0 6000 м дымка ясно +3.3 +0.4 81 +2 +2 1022.1 1008.9
21 18.02 н/о н/о +1.4 -0.8 85 1022.1 1008.7
00 19.02 штиль 0 н/о н/о 0.0 -1.4 90 -1 -1 1021.8 1008.4
03 19.02 штиль 0 6000 м дымка ясно -1.5 -2.0 96 -3 -3 1020.9 1007.4
04 19.02 ЮВ 1 6000 м дымка ясно -2.1 -2.6 96 -4 -4 1020.9 1007.4
05 19.02 штиль 0 6000 м дымка ясно -2.6 -3.2 96 -4 -4 1021.2 1007.7
06 19.02 В 1 6000 м дымка ясно -2.7 -3.3 96 -5 -5 1021.2 1007.7 -3.0
07 19.02 З 1 6000 м дымка ясно -1.4 -2.2 94 -4 -2 1021.5 1008.0
08 19.02 С 1 8000 м дымка ясно +1.7 0.0 88 -0 +3 1021.7 1008.4

 

Местоположение метеостанции Сисак (Хорватия): широта 45.50 долгота 16.37 высота над уровнем моря 106 м.

В архиве по умолчанию представлена погода в Сисаке за последнюю неделю. Архивные данные за месяц целиком и за предыдущие месяцы, начиная с января 2011 года, Вы можете получить, выбрав интересующий диапазон дат из раскрывающегося списка и нажав кнопку "Ввод!".


*Определитесь, кто Вы:
робот инопланетянин человек

Внимание! Время в таблицах - всемирное. Для получения местного времени необходимо прибавить поправку, которая равна 1 ч.

Смотрите также архив погоды в соседних городах и на ближайших метеорологических станциях:

Погода в Загреб аэропорту (Хорватия) (35 км)
Погода в Загребе (Хорватия) (44 км)
Погода в Бьеловаре (Хорватия) (45 км)
Погода в Загреб-Градеце (Хорватия) (47 км)
Погода в Пунтиярке (Хорватия) (56 км)
Погода в Крижевцах (Хорватия) (61 км)
Погода в Карловаце (Хорватия) (62 км)
Погода в Даруваре (Хорватия) (68 км)
Погода на Било-Горе (Хорватия) (77 км)
Погода в Церки-об-Крки (Словения) (80 км)

Пояснения к столбцам:

Ветер - указаны скорость ветра в м/с - средняя за 10 мин, порывы в срок и между сроками (в фигурных скобках) и направление, откуда дует ветер: С - северный, СВ - северо-восточный, В - восточный, ЮВ - юго-восточный, Ю - южный, ЮЗ - юго-западный, З - западный, СЗ - северо-западный.
Видимость - горизонтальная дальность видимости в метрах или километрах. При видимости от 1 до 10 км при отсутствии осадков обычно наблюдается дымка, при ухудшении видимости до 1 км и менее - туман. В сухую погоду видимость может ухудшаться дымом, пылью или мглою.
Явления - указаны атмосферные явления, наблюдавшиеся в срок или в последний час перед сроком; фигурными скобками обозначены явления, наблюдавшиеся между сроками (за 1-3 часа до срока); квадратными скобками обозначены град или гололедные отложения с указанием их диаметра в мм.
Облачность - указаны через наклонную черту общая и нижняя облачность в баллах и высота нижней границы облаков в метрах; квадратными скобками обозначены формы облаков: Ci - перистые, Cs - перисто-слоистые, Cc - перисто-кучевые, Ac - высококучевые, As - высокослоистые, Sc - слоисто-кучевые, Ns - слоисто-дождевые, Cu - кучевые, Cb - кучево-дождевые. Подробнее классификацию облаков см. в Атласе облаков (PDF).
T - Температура воздуха - температура, измеренная на высоте 2 м над землей.
Td - Температура точки росы - температура, при понижении до которой содержащийся в воздухе водяной пар достигнет насыщения.
f - Относительная влажность воздуха - влажноcть воздуха, измеренная на высоте 2 м над землей.
Te - Эффективная температура - температура, которую ощущает одетый по сезону человек в тени. Характеристика душности погоды. При расчете учитывается влияние влажности воздуха и скорости ветра на теплоощущения человека.
Tes - Эффективная температура на солнце - температура, которую ощущает человек, с поправкой на солнечный нагрев. Характеристика знойности погоды. Зависит от высоты солнца над горизонтом, облачности и скорости ветра. Ночью, в пасмурную погоду, а также при ветре 12 м/с и более поправка равна нулю.
P - Атмосферное давление - приведенное к уровню моря атмосферное давление.
Po - Атмосферное давление - измеренное на уровне метеостанции атмосферное давление.
Tmin - Минимальная температура - минимум температуры воздуха на высоте 2 м над землей.
Tmax - Максимальная температура - максимум температуры воздуха на высоте 2 м над землей.
R - Количество осадков - Количество выпавших осадков за период времени, мм. При наведении курсора мыши на число - период времени, за который выпало указанное количество осадков.
R24 - Количество осадков - Количество выпавших осадков за 24 часа, мм.
S - Снежный покров - Высота снежного покрова, см. При наведении курсора мыши на число - состояние снежного покрова и степень покрытия местности в баллах.